Regional Weather Roundup
Issued by NWS Sterling, VA

Home | Current Version | Previous Version | Graphics & Text | Print | Product List | Glossary On
Versions: 1 2 3 4 5 6 7 8 9 10 11 12 13 14 15 16 17 18 19 20 21 22 23 24 25 26 27 28 29 30 31 32 33 34 35 36 37 38 39 40 41 42 43 44 45 46 47 48 49 50
794
ASUS41 KLWX 190511
RWRLWX

REGIONAL WEATHER ROUNDUP
NATIONAL WEATHER SERVICE BALTIMORE MD/WASHINGTON DC
100 AM EDT THU OCT 19 2017

Note: "FAIR" indicates few or no clouds below 12,000 feet
with no significant weather and/or obstructions to visibility.
 TC=TEMPERATURE CELSIUS

 * =Non NWS site. Station does not report precipitation (e.g. rain,
    snow, etc.), thunder, or fog.

DCZ001-MDZ009-015-VAZ040>042-051-053>054-190600-
WASHINGTON METRO

CITY           SKY/WX    TMP DP  RH WIND       PRES   REMARKS
WASHINGTON NAT MOCLDY    53  49  86 SW6       30.31F
DULLES         PTCLDY    46  44  93 S5        30.30S
ANDREWS AFB    CLEAR     49  45  84 S7        30.30S
FT BELVOIR     CLEAR     45  44  95 CALM      30.31S
QUANTICO       PTCLDY    49  48  97 NW7       30.32S
COLLEGE PARK*  CLEAR     45  44  97 CALM      30.30F
LEESBURG*      CLEAR     46  46 100 CALM      30.31S
MANASSAS*      CLEAR     42  42 100 CALM      30.31F
GAITHERSBURG*  CLEAR     47  45  93 SE3       30.30F

$$

MDZ006>007-011-014-190600-
BALTIMORE METRO

CITY           SKY/WX    TMP DP  RH WIND       PRES   REMARKS
BWI AIRPORT    PTCLDY    47  46  97 CALM      30.30F
MD SCIENCE CTR   N/A     56  46  69 MISG      30.31S
MARTIN STATE   CLEAR     50  50 100 CALM      30.32S
ANNAPOLIS      CLEAR     54  52  93 CALM      30.30F
FORT MEADE*    CLEAR     41  41 100 CALM      30.33S

$$

MDZ012-015-019>023-190600-
MARYLAND EASTERN SHORE

CITY           SKY/WX    TMP DP  RH WIND       PRES   REMARKS
OCEAN CITY     CLEAR     45  44  97 CALM      30.33F
SALISBURY      CLEAR     44  43  96 CALM      30.32F
CAMBRIDGE*     CLEAR     45  45 100 CALM      30.32S
EASTON*        CLEAR     50  46  85 CALM      30.35S

$$

MDZ017>025-190600-
SOUTHERN MARYLAND

CITY           SKY/WX    TMP DP  RH WIND       PRES   REMARKS
PATUXENT RIVER CLEAR     51  47  86 SW6       30.31F
ST INIGOES     CLEAR     47  45  93 CALM      30.31F
LEONARDTOWN*   NOT AVBL

$$

MDZ003>005-190600-
NORTH CENTRAL MARYLAND

CITY           SKY/WX    TMP DP  RH WIND       PRES   REMARKS
FREDERICK*     CLEAR     46  46 100 CALM      30.31F
HAGERSTOWN APT CLEAR     53  42  66 S5        30.27F
WESTMINSTER*   CLEAR     55  45  67 S5        30.29F

$$

MDZ501>502-190600-
WESTERN MARYLAND

CITY           SKY/WX    TMP DP  RH WIND       PRES   REMARKS
OAKLAND*       CLEAR     50  34  53 S7        30.25F
CUMBERLAND*    PTCLDY    46  43  87 CALM      30.30F

$$

VAZ025>031-190600-
SHENANDOAH VALLEY

CITY           SKY/WX    TMP DP  RH WIND       PRES   REMARKS
WINCHESTER*    CLEAR     48  41  76 CALM      30.28S
FRONT ROYAL*   CLEAR     48  41  76 S5        30.27F
LURAY*         CLEAR     45  41  87 CALM      30.29F
NEW MARKET*    PTCLDY    40  38  94 CALM      30.29F
STAUNTON*      CLEAR     42  38  86 S3        30.31F
WAYNESBORO*    PTCLDY    43  41  92 S3        30.31F

$$

WVZ021-048>050-054>055-190600-
EASTERN WEST VIRGINIA PANHANDLE

CITY           SKY/WX    TMP DP  RH WIND       PRES   REMARKS
MARTINSBURG    PTCLDY    43  40  89 CALM      30.27F
PETERSBURG*    PTCLDY    39  38  95 CALM      30.28F

$$

VAZ036>039-050-190600-
CENTRAL FOOTHILLS

CITY           SKY/WX    TMP DP  RH WIND       PRES   REMARKS
CHARLOTTESVILL CLEAR     49  44  83 SW3       30.30F
CULPEPER*      CLEAR     41  39  93 CALM      30.31F
ORANGE*        CLEAR     41  39  93 CALM      30.31S
GORDONSVILLE*  CLEAR     41  41 100 CALM      30.31S
WARRENTON*     CLEAR     38  36  90 CALM      30.30S

$$

VAZ055>057-190600-
NORTH AND CENTRAL PIEDMONT

CITY           SKY/WX    TMP DP  RH WIND       PRES   REMARKS
FREDERICKSBRG* PTCLDY    45  45 100 CALM      30.31S
STAFFORD*      PTCLDY    39  39 100 CALM      30.36S

$$

NCZ024-NYZ072-PAZ021-071-VAZ022-071-190600-
OTHER REGIONAL OBSERVATIONS

CITY           SKY/WX    TMP DP  RH WIND       PRES   REMARKS
NEW YORK CITY  CLEAR     61  47  59 W8        30.30S
PHILADELPHIA   CLEAR     57  47  69 SW7       30.30F
PITTSBURGH     CLEAR     48  42  80 CALM      30.20F
ROANOKE        PTCLDY    46  42  86 CALM      30.34F
RICHMOND       CLOUDY    48  44  86 CALM      30.32F
RALEIGH        PTCLDY    45  45 100 CALM      30.32F

$$

ANZ530>537-190600-
MARINE OBSERVATIONS

STATION/POSITION TIME  TEMP    WIND        PRES
                       AIR SEA DIR/SP/G
                 (UTC) (F)     (DEG/KT/KT) (MB)
THOMAS PT LIGHT  0500   61 68  210/ 11/ 13   N/A
BALT KEY BRIDGE  0448   57     210/  6/  7 1025.9F
COVE POINT       0448   59     220/  9/ 10 1027.2F
LEWISETTA        0442   55 65  220/  4/  6 1026.6F
SOLOMONS ISLAND  0448   58 69  220/  5/  7 1026.3S
PINEY POINT      0448          230/  9/ 10   N/A

$$





USA.gov is the U.S. government's official web portal to all federal, state and local government web resources and services.